Wind_Speed
51 51 53 53 60 64 65 61 57 49 46 42 39 37 32 24 36 27 27 27 26 20 16 15 19 19 16 23 28 35 38 32 31 30 30 31 32 32 33 29 28 28 26 26
52 47 37 44 49 53 56 55 52 44 42 44 38 39 33 25 27 29 29 22 20 16 15 16 20 17 21 28 31 36 35 28 29 28 30 30 30 32 31 29 27 28 29 31
49 35 36 34 35 40 45 44 41 42 43 43 35 42 35 23 28 31 25 20 17 16 13 17 18 18 19 28 30 30 27 26 25 26 29 29 30 32 29 28 27 30 32 28
52 45 43 41 33 28 34 28 35 39 37 38 35 47 33 26 28 27 19 23 17 15 11 13 15 18 20 20 23 26 25 24 24 25 28 30 31 29 27 27 29 30 30 24
50 50 48 41 29 26 28 31 35 39 37 41 37 46 24 24 22 17 19 16 15 14 12 13 15 17 19 19 22 23 23 22 22 24 27 28 27 24 27 27 28 29 24 19
52 45 44 39 34 32 29 27 24 38 40 52 33 37 19 18 15 22 18 13 13 12 12 11 14 16 19 17 18 21 19 19 21 24 24 25 23 24 25 28 28 23 18 15
57 53 47 47 40 38 36 35 32 39 44 47 24 37 18 11 18 21 16 14 16 8 12 9 13 15 16 12 14 16 17 18 20 21 25 25 23 24 22 26 22 18 13 8
56 54 51 47 46 37 31 33 37 35 33 33 24 40 9 18 20 21 20 19 12 9 10 12 15 15 16 13 13 15 16 19 19 21 25 21 21 20 24 23 20 12 9 6
58 56 48 44 44 38 33 40 35 35 35 33 32 30 16 27 23 18 18 12 10 6 10 15 14 12 11 10 13 13 17 18 17 20 20 16 17 19 20 17 11 8 8 8
61 59 51 44 45 42 41 36 38 39 38 38 36 24 17 25 19 23 14 11 5 3 10 14 11 9 8 12 9 13 16 15 15 18 14 14 15 17 16 12 9 9 10 10
62 61 52 47 48 46 49 47 46 41 44 40 37 21 17 26 21 18 15 12 5 4 12 10 8 8 9 10 9 13 14 14 13 15 13 13 14 15 13 12 9 11 9 11
65 61 53 48 44 40 39 44 41 42 40 33 25 23 23 29 25 16 15 12 3 5 9 9 6 8 10 9 8 12 11 11 11 14 11 12 13 15 9 12 10 10 9 10
69 66 56 53 49 46 45 40 41 44 40 33 26 18 26 24 24 18 15 10 2 5 5 6 8 6 10 5 7 11 9 9 13 12 10 12 12 13 7 11 9 11 9 8
72 68 61 55 49 41 45 44 45 45 42 31 23 24 26 30 23 16 13 10 3 3 3 6 9 4 9 3 6 10 10 10 12 11 7 10 11 8 8 9 12 10 9 8
75 68 61 56 51 47 50 43 43 44 31 32 25 26 27 27 21 14 14 12 6 1 3 4 7 2 7 4 5 9 11 9 9 10 8 8 9 10 12 8 10 11 10 9
75 70 64 57 53 47 50 47 45 40 31 29 30 32 23 24 19 15 20 13 6 1 4 3 3 1 5 6 4 8 9 9 7 8 9 7 9 8 9 9 9 9 9 8
75 72 68 61 55 51 53 48 43 41 35 34 32 30 27 26 23 18 19 13 7 3 1 3 2 2 3 6 6 6 8 8 7 9 9 8 9 12 11 6 8 9 10 10
74 74 70 66 59 57 49 46 43 37 34 30 32 31 26 26 20 16 19 13 9 5 2 4 3 2 2 5 7 6 6 8 7 9 9 9 10 14 16 12 12 13 11 14
67 74 72 67 62 55 52 48 48 43 39 36 34 34 32 30 22 19 19 14 11 8 4 1 3 2 3 2 6 6 5 6 5 7 6 7 8 11 14 18 15 14 15 15
57 70 73 67 61 59 59 52 48 41 40 37 34 37 35 35 31 21 16 14 13 11 7 2 4 2 3 3 3 5 5 4 3 4 4 5 9 10 12 14 18 21 19 19
40 46 59 65 62 62 64 56 46 45 44 41 37 38 36 34 26 19 14 16 17 14 8 4 4 5 4 5 2 3 4 2 2 4 4 6 9 12 13 13 14 17 18 17
36 44 49 55 61 61 55 50 51 51 46 43 41 39 39 35 28 24 19 20 21 17 10 4 4 6 4 5 6 3 2 1 2 3 5 4 7 9 8 8 9 11 14 14
40 37 50 50 60 61 57 55 54 50 47 45 43 39 40 38 32 28 25 24 25 20 15 11 8 7 7 5 6 9 4 1 3 5 5 6 5 7 6 4 8 11 13 15
39 38 39 55 58 56 53 53 57 50 49 45 43 41 39 36 38 31 27 28 25 24 20 15 11 8 9 9 8 8 7 3 3 5 7 6 6 7 8 8 9 12 14 16
38 34 40 52 58 54 55 54 52 57 54 50 43 42 38 36 38 33 28 27 25 22 22 21 17 11 11 12 10 9 9 6 6 4 6 8 8 10 9 9 10 10 11 11
33 28 36 49 55 53 55 54 56 54 55 52 47 41 39 36 39 34 30 27 26 23 20 20 20 17 14 13 11 12 10 8 10 7 6 8 11 14 13 11 12 12 11 9
Wind_Direction
243 246 246 251 252 252 254 256 260 264 266 265 267 253 264 253 254 260 268 281 274 266 272 282 287 288 304 306 306 315 318 314 307 310 315 315 316 316 314 318 320 320 316 309
244 243 251 258 258 255 254 256 257 261 261 265 256 254 255 252 248 254 271 273 252 260 272 287 288 292 306 307 301 306 313 306 306 312 313 313 313 314 315 317 319 317 312 308
245 247 255 251 249 248 253 258 259 262 265 253 243 252 247 239 236 254 275 259 245 253 270 284 292 306 300 296 298 306 302 304 308 313 311 314 312 312 313 317 313 314 313 310
235 238 237 242 244 240 249 257 257 254 253 242 244 251 239 235 240 263 262 250 251 261 268 299 315 301 294 293 301 299 299 304 310 313 315 315 310 310 314 312 312 313 314 314
233 234 238 239 252 246 255 256 249 235 230 224 230 251 219 241 248 263 255 245 241 257 280 310 314 308 303 297 297 301 300 306 314 316 318 313 309 313 316 317 315 314 317 317
227 228 230 234 234 239 251 241 222 213 206 222 216 247 229 253 244 231 237 219 245 263 295 318 320 309 295 304 303 298 304 312 315 320 316 314 315 318 321 323 317 320 322 322
221 227 223 221 222 223 229 224 216 216 217 228 224 241 222 281 230 235 224 228 245 269 293 321 305 307 309 307 302 306 311 316 317 318 317 310 311 321 324 324 326 330 334 349
222 224 223 223 226 225 229 244 226 228 237 246 231 243 253 230 236 236 214 218 243 269 317 331 324 301 309 303 301 313 316 318 313 315 313 316 317 326 327 322 333 346 1 49
218 219 224 223 225 226 223 231 224 240 252 254 239 247 225 221 230 212 209 220 247 277 333 339 320 307 307 302 313 318 322 320 324 319 317 326 334 333 335 342 360 12 67 68
216 218 215 219 220 214 225 231 228 233 238 243 251 255 229 233 223 205 184 224 241 300 354 332 312 319 312 328 327 325 327 328 329 326 338 341 346 343 351 12 22 75 87 90
213 216 212 214 218 211 218 223 222 223 236 245 249 240 213 219 228 200 196 220 215 11 338 298 312 328 316 339 332 331 335 333 332 339 346 348 358 350 358 9 53 89 92 102
211 214 208 209 221 216 216 221 231 235 242 251 254 225 196 204 220 194 203 217 187 3 330 287 331 332 336 346 333 336 337 343 338 342 344 349 360 359 11 43 74 94 86 111
206 211 204 202 210 209 211 217 220 223 233 232 226 179 197 206 216 193 196 214 141 307 355 333 337 340 345 357 341 338 337 341 333 333 343 351 360 5 39 47 82 103 104 112
205 209 206 206 208 208 207 211 214 222 221 216 196 171 191 208 196 181 206 223 192 286 324 350 347 339 359 5 350 341 346 336 338 348 360 8 9 25 48 64 69 100 101 109
203 207 205 203 201 202 204 208 216 225 218 211 187 182 195 207 192 178 231 218 214 308 339 337 342 343 14 9 358 343 350 346 353 14 16 22 29 50 55 81 71 69 86 109
202 204 202 200 201 202 205 206 210 212 206 200 186 175 182 204 204 186 230 205 195 272 350 343 348 107 27 19 5 345 356 352 9 17 19 64 61 49 34 66 76 77 80 97
202 202 201 198 198 203 207 205 207 210 197 196 193 169 194 207 200 190 224 199 188 202 327 135 53 135 53 28 26 350 359 1 23 43 66 74 72 64 63 60 70 87 84 91
203 201 201 200 198 205 201 206 209 208 201 195 186 182 193 204 187 203 216 193 188 189 204 125 99 144 124 40 33 3 359 9 40 73 79 82 67 66 64 80 85 91 81 90
206 201 203 204 200 202 206 205 210 203 200 193 189 180 187 193 199 201 208 198 203 182 216 154 133 141 144 81 32 14 12 15 58 94 86 71 59 66 74 73 81 102 95 86
207 205 207 202 199 202 209 204 209 201 201 194 187 185 191 192 193 186 209 203 208 197 193 184 147 130 174 166 53 25 22 29 61 102 93 72 82 81 83 86 84 103 95 89
205 212 210 204 199 202 207 205 205 204 199 195 190 192 196 197 190 177 220 221 201 198 207 190 162 171 181 193 221 16 28 58 62 125 119 109 105 103 100 94 95 101 100 94
208 213 214 206 201 205 206 203 204 209 204 200 200 199 200 200 196 186 212 206 206 190 189 203 190 185 175 189 228 284 9 95 154 151 150 135 136 123 112 110 102 105 108 104
205 214 220 213 202 204 206 206 206 209 209 207 205 202 205 206 202 194 198 195 203 200 193 208 203 185 188 186 217 248 278 271 177 191 173 178 169 147 140 133 118 115 110 110
201 208 217 220 206 210 209 207 208 207 212 211 209 206 207 208 206 200 201 198 197 196 193 198 217 189 187 203 199 212 249 247 201 188 199 189 189 171 152 153 143 129 121 116
195 199 206 221 217 212 214 211 212 212 212 215 211 208 205 210 206 202 204 202 198 195 199 201 207 212 192 201 203 194 219 229 217 204 198 200 179 178 172 170 168 157 143 129
206 189 201 219 215 212 216 217 212 215 214 213 215 207 202 211 208 209 205 206 202 202 202 205 207 207 211 203 208 202 209 217 215 212 213 197 190 182 184 192 192 186 179 170
Height
5730 5732 5733 5743 5743 5749 5753 5756 5761 5769 5775 5775 5774 5772 5777 5783 5778 5783 5783 5783 5782 5780 5781 5778 5776 5773 5769 5770 5768 5765 5762 5757 5753 5748 5744 5740 5736 5732 5727 5722 5718 5714 5709 5706
5718 5721 5736 5735 5739 5742 5744 5748 5752 5763 5766 5765 5766 5762 5769 5775 5776 5777 5777 5778 5776 5776 5775 5773 5771 5767 5765 5764 5762 5760 5757 5752 5748 5744 5740 5736 5732 5728 5722 5717 5713 5709 5704 5700
5708 5723 5725 5725 5727 5730 5733 5738 5747 5752 5754 5751 5752 5750 5760 5769 5768 5770 5772 5772 5772 5771 5769 5768 5764 5762 5761 5760 5757 5755 5751 5748 5744 5740 5736 5732 5728 5723 5718 5714 5710 5704 5699 5694
5699 5708 5710 5713 5718 5724 5725 5734 5737 5740 5740 5742 5745 5737 5752 5761 5762 5766 5767 5767 5768 5766 5764 5762 5759 5758 5755 5754 5752 5750 5746 5743 5740 5735 5732 5728 5723 5718 5714 5710 5705 5699 5694 5690
5690 5696 5701 5708 5717 5720 5721 5723 5724 5728 5730 5732 5738 5734 5750 5755 5759 5762 5762 5763 5764 5761 5759 5757 5755 5753 5751 5749 5748 5746 5742 5739 5735 5731 5728 5724 5718 5715 5710 5706 5700 5695 5690 5685
5676 5685 5693 5701 5707 5712 5716 5716 5717 5719 5723 5720 5737 5737 5745 5752 5755 5755 5757 5757 5758 5757 5756 5754 5751 5749 5748 5745 5743 5741 5737 5734 5731 5727 5724 5720 5716 5712 5707 5702 5696 5692 5687 5682
5661 5669 5680 5687 5693 5700 5705 5708 5709 5713 5712 5713 5737 5733 5742 5747 5748 5750 5753 5754 5754 5753 5753 5750 5748 5746 5744 5741 5739 5736 5734 5731 5727 5725 5721 5716 5713 5708 5704 5699 5695 5689 5684 5681
5653 5662 5669 5678 5684 5696 5704 5707 5707 5711 5715 5721 5732 5725 5744 5745 5745 5747 5750 5750 5750 5749 5749 5746 5743 5743 5740 5738 5736 5733 5730 5727 5725 5722 5717 5714 5710 5706 5702 5697 5692 5687 5684 5681
5640 5649 5662 5673 5682 5690 5696 5691 5707 5710 5713 5716 5722 5730 5739 5740 5743 5746 5748 5746 5746 5746 5745 5741 5741 5739 5737 5735 5733 5730 5728 5725 5723 5719 5715 5712 5708 5705 5701 5696 5692 5687 5685 5684
5629 5638 5652 5664 5670 5680 5687 5694 5699 5700 5703 5706 5713 5726 5734 5736 5740 5743 5742 5743 5743 5744 5741 5740 5740 5736 5735 5733 5730 5729 5727 5724 5722 5718 5714 5711 5708 5705 5701 5697 5693 5689 5688 5687
5618 5627 5644 5653 5658 5668 5676 5680 5684 5693 5695 5701 5709 5722 5730 5734 5738 5738 5739 5740 5740 5739 5738 5738 5737 5734 5733 5730 5729 5728 5726 5723 5721 5718 5715 5711 5708 5706 5702 5698 5694 5692 5692 5691
5605 5619 5632 5646 5652 5664 5670 5676 5686 5690 5695 5703 5711 5718 5724 5728 5732 5734 5736 5738 5736 5736 5736 5736 5734 5732 5730 5729 5728 5727 5725 5723 5721 5718 5715 5712 5709 5706 5704 5699 5697 5695 5696 5695
5593 5605 5622 5633 5642 5651 5659 5670 5676 5680 5688 5695 5706 5716 5720 5726 5729 5732 5734 5735 5733 5734 5734 5734 5731 5730 5729 5728 5728 5727 5725 5724 5722 5718 5715 5713 5710 5707 5705 5702 5699 5698 5698 5699
5584 5598 5616 5629 5640 5650 5653 5659 5667 5672 5677 5691 5703 5712 5716 5720 5725 5729 5732 5733 5731 5732 5733 5731 5730 5729 5728 5728 5728 5727 5725 5724 5722 5719 5716 5715 5711 5709 5707 5706 5703 5702 5702 5702
5578 5594 5610 5622 5630 5638 5645 5655 5661 5665 5682 5686 5702 5709 5713 5719 5722 5726 5730 5731 5730 5730 5731 5730 5729 5728 5728 5728 5728 5727 5726 5724 5723 5720 5717 5716 5714 5711 5710 5710 5708 5706 5706 5706
5571 5587 5603 5616 5626 5632 5638 5646 5653 5663 5676 5685 5694 5702 5710 5714 5719 5722 5727 5728 5728 5728 5728 5728 5727 5728 5728 5729 5729 5728 5726 5725 5723 5721 5719 5718 5717 5715 5713 5713 5712 5711 5710 5709
5564 5579 5594 5608 5618 5626 5630 5644 5651 5660 5670 5680 5689 5703 5705 5710 5715 5719 5725 5726 5726 5726 5727 5727 5727 5727 5728 5729 5729 5728 5727 5726 5724 5722 5721 5721 5720 5718 5716 5714 5714 5714 5714 5712
5557 5571 5586 5599 5610 5618 5634 5642 5649 5659 5670 5678 5685 5692 5700 5706 5711 5717 5721 5724 5723 5724 5725 5726 5726 5727 5727 5728 5729 5729 5728 5727 5725 5724 5724 5724 5723 5721 5719 5718 5717 5717 5717 5717
5555 5566 5579 5592 5606 5622 5628 5636 5642 5651 5663 5670 5678 5685 5691 5697 5705 5711 5717 5720 5722 5722 5723 5724 5725 5726 5727 5728 5729 5730 5729 5728 5728 5728 5728 5728 5727 5725 5724 5723 5722 5721 5722 5723
5553 5562 5573 5589 5603 5613 5619 5630 5637 5650 5658 5666 5673 5679 5685 5690 5696 5706 5713 5717 5720 5720 5722 5723 5723 5725 5726 5728 5729 5731 5730 5729 5730 5730 5731 5730 5729 5730 5729 5729 5728 5728 5728 5728
5551 5558 5569 5582 5596 5604 5611 5623 5634 5644 5655 5661 5668 5674 5680 5688 5697 5701 5708 5714 5717 5719 5720 5721 5722 5724 5725 5727 5729 5730 5731 5730 5731 5732 5733 5734 5733 5733 5734 5734 5734 5734 5734 5733
5548 5555 5565 5577 5588 5597 5605 5619 5629 5633 5647 5656 5664 5671 5679 5686 5692 5696 5703 5707 5714 5716 5718 5720 5721 5722 5724 5726 5728 5730 5731 5731 5732 5734 5735 5736 5737 5736 5737 5738 5738 5738 5739 5739
5549 5553 5560 5571 5584 5594 5605 5616 5622 5632 5641 5650 5658 5667 5675 5683 5689 5691 5698 5703 5708 5713 5716 5717 5720 5721 5723 5724 5726 5729 5731 5732 5732 5734 5736 5737 5739 5739 5739 5740 5741 5741 5742 5743
5545 5550 5557 5569 5581 5591 5600 5609 5618 5626 5635 5645 5654 5663 5671 5679 5683 5687 5693 5699 5703 5708 5712 5715 5717 5719 5721 5723 5724 5726 5729 5731 5732 5733 5736 5738 5739 5741 5741 5743 5744 5745 5746 5746
5542 5548 5557 5566 5577 5586 5593 5602 5612 5620 5630 5639 5649 5658 5666 5673 5678 5683 5688 5695 5699 5703 5708 5712 5715 5716 5719 5720 5722 5724 5726 5729 5731 5733 5734 5737 5739 5741 5743 5744 5746 5747 5748 5750
5538 5545 5553 5560 5572 5581 5587 5595 5605 5615 5624 5634 5643 5653 5660 5668 5674 5680 5685 5691 5695 5699 5704 5708 5712 5714 5715 5718 5720 5721 5724 5726 5729 5732 5733 5735 5738 5741 5743 5745 5747 5748 5750 5751